World > North America > United States > Texas

Monadale, Texas Regional Weather

Lat: 30.55N, Lon: 97.55W
Wx Zone: TXZ173Web Search
Monadale Weather Warning NWS WEATHER ALERT FOR THE MONADALE, TX AREA - Issued: 341 AM CDT Fri Apr 16 2021 Monadale Weather Warning  

Pass this page to a friend. Tell them to point their camera at the QR Code near the bottom of this page.

Feedback


°F Click to change Monadale hourly weather to Imperial units.Click to change Monadale hourly weather to Metric units. °C
Monadale Weather Map
UTC Time: 4/16/2021, 11:13
Your Time:

Monadale, TX Regional Weather

Expires:202104161200;;637564
ASUS44 KSJT 161110
RWRSJT
WEST CENTRAL TEXAS REGIONAL WEATHER ROUNDUP
NATIONAL WEATHER SERVICE SAN ANGELO TX
600 AM CDT FRI APR 16 2021

NOTE: "FAIR" INDICATES FEW OR NO CLOUDS BELOW 12,000 FEET WITH NO
SIGNIFICANT WEATHER AND/OR OBSTRUCTIONS TO VISIBILITY.


TXZ145-158-159-173-191-192-194-205-207-220-223-161200-
CENTRAL AND SOUTH CENTRAL TEXAS
  
CITY           SKY/WX    TMP DP  RH WIND       PRES   REMARKS
AUSTIN/BERGSTM DRZL/FOG  61  61 100 NE3       29.80S VSB 1/4          
WACO           CLOUDY    60  58  92 SE7       29.83S FOG              
HILLSBORO      CLOUDY    58  58 100 E9        29.83S FOG              
TEMPLE         CLOUDY    59  59 100 E8        29.84S FOG              
KILLEEN-GRAY   CLOUDY    59  58  97 E6        29.91S                  
FORT HOOD      CLOUDY    60  59  97 E6        29.83R                  
GEORGETOWN     CLOUDY    61  60  97 E6        29.84R FOG              
LAGO VISTA     RAIN      60  59  98 E5        29.83R VSB 1/4          
SAN MARCOS     CLOUDY    64  64 100 E6        29.80S FOG              
NEW BRAUNFELS  FOG       65  64  97 E5        29.78S VSB 1/2          
RANDOLPH AFB   FOG       65  64  99 E3        29.77S VSB 7/8          
SAN ANTONIO    LGT RAIN  65  64  97 E5        29.79S VSB 1            
STINSON        CLOUDY    66  65  96 E6        29.76F FOG              
PLEASANTON     NOT AVBL                                               
LA GRANGE      CLOUDY    66  66 100 SE3       29.78F FOG              
GIDDINGS       CLOUDY    63  62  96 E6        29.82R FOG              
$$


SKY/WX - Weather  TMP - Temperature  DP - Dew Point  RH - Relative Humidity
WIND - Wind Direction/Speed PRES - Barometric Pressure VSB - Visibility
WCI - Wind Chill Index E13G22 Wind - East Wind 13 mph/Gusts of 22 mph